Regional Weather Roundup
Issued by NWS

Home | Current Version | Previous Version | Text Only | Print | Product List | Glossary Off
Versions: 1 2 3 4 5 6 7 8 9 10 11 12 13 14 15 16 17 18 19 20 21 22 23 24 25 26 27 28 29 30 31 32 33 34 35 36 37 38 39 40 41 42 43 44 45 46 47 48 49 50

505
ASUS43 KMKX 080611
RWRWI

WISCONSIN REGIONAL WEATHER ROUNDUP
NATIONAL WEATHER SERVICE MILWAUKEE/SULLIVAN WI
1200 AM CST THU DEC 08 2016

NOTE: "FAIR" INDICATES FEW OR NO CLOUDS BELOW 12,000 FEET WITH NO
SIGNIFICANT WEATHER AND/OR OBSTRUCTIONS TO VISIBILITY.

WIZ001-002-006>008-014>016-023>028-080700-
NORTHWEST WISCONSIN

CITY           SKY/WX    TMP DP  RH WIND       PRES   REMARKS
SUPERIOR ARPT  CLOUDY    21  16  81 W13       30.00R WCI   9
6HR MIN TEMP:  19; 6HR MAX TEMP:  21;

ASHLAND        LGT SNOW  18  14  84 SW9       29.95R FOG     WCI   7
6HR MIN TEMP:  18; 6HR MAX TEMP:  19; 6HR PCP: TRACE;

HAYWARD        LGT SNOW  16  11  80 SW8       29.98S WCI   5
6HR MIN TEMP:  16; 6HR MAX TEMP:  18; 6HR PCP: TRACE;

SIREN          LGT SNOW  17  13  84 W8        30.05R WCI   6
6HR MIN TEMP:  17; 6HR MAX TEMP:  18;

CUMBERLAND     LGT SNOW  14  10  85 W14G20    30.02S WCI  -1
RICE LAKE      FLURRIES  15  10  80 W15G21    30.05S WCI   0
6HR MIN TEMP:  15; 6HR MAX TEMP:  19;

CHETEK         MOCLDY    15  10  79 W7G17     30.05R WCI   5
6HR MIN TEMP:  15; 6HR MAX TEMP:  18;

LADYSMITH      LGT SNOW  15  11  82 W9        30.01S WCI   4
6HR MIN TEMP:  15; 6HR MAX TEMP:  19;

EAU CLAIRE     LGT SNOW  16  10  77 W15       30.07S WCI   1
6HR MIN TEMP:  16; 6HR MAX TEMP:  19; 6HR PCP: TRACE;

MENOMONIE      CLOUDY    17  11  76 W15G22    30.09R WCI   3
6HR MIN TEMP:  17; 6HR MAX TEMP:  19;

NEW RICHMOND   LGT SNOW  16  10  78 W15G21    30.10R WCI   1
6HR MIN TEMP:  16; 6HR MAX TEMP:  17;

OSCEOLA        LGT SNOW  17  12  81 W12       30.13S WCI   4
6HR MIN TEMP:  17; 6HR MAX TEMP:  18;

$$

WIZ003>005-009-010-017-018-080700-
NORTH CENTRAL WISCONSIN

CITY           SKY/WX    TMP DP  RH WIND       PRES   REMARKS
MANITOWISH WTR FLURRIES  14  11  89 W8        29.88S WCI   3
6HR MIN TEMP:  13; 6HR MAX TEMP:  16;

ARBOR VITAE    FLURRIES  17  12  82 W9        29.89S WCI   5
6HR MIN TEMP:  17; 6HR MAX TEMP:  19;

WOODRUFF       FLURRIES  17  12  82 W9        29.89S WCI   5
6HR MIN TEMP:  17; 6HR MAX TEMP:  19;

RHINELANDER    LGT SNOW  14   9  80 W13       29.91R WCI   0
6HR MIN TEMP:  14; 6HR MAX TEMP:  19; 6HR PCP: TRACE;

EAGLE RIVER    FLURRIES  15   9  76 W10G16    29.87S WCI   2
6HR MIN TEMP:  15; 6HR MAX TEMP:  18;

LAND O LAKES   LGT SNOW  16  11  82 W9G16     29.87R WCI   4
6HR MIN TEMP:  16; 6HR MAX TEMP:  17;

PHILLIPS       LGT SNOW  13  10  86 W10       29.93S WCI   0
6HR MIN TEMP:  13; 6HR MAX TEMP:  17;

TOMAHAWK       LGT SNOW  13   8  80 W9G18     29.94S WCI   1
6HR MIN TEMP:  13; 6HR MAX TEMP:  17;

MEDFORD        LGT SNOW  13   8  80 W14G20    29.97R WCI  -2
6HR MIN TEMP:  13; 6HR MAX TEMP:  17;

MERRILL        FLURRIES  15   9  77 W10G18    29.97R WCI   3
6HR MIN TEMP:  15; 6HR MAX TEMP:  19;

$$

WIZ029-030-035-036-043>047-080700-
CENTRAL WISCONSIN

CITY           SKY/WX    TMP DP  RH WIND       PRES   REMARKS
WAUSAU         FLURRIES  16   9  74 W18G28    29.98R WCI   0
6HR MIN TEMP:  16; 6HR MAX TEMP:  19; 6HR PCP: TRACE;

MOSINEE        LGT SNOW  18  12  79 W14G20    30.00R WCI   4
MARSHFIELD     FLURRIES  16   9  74 W14G25    30.00S WCI   2
6HR MIN TEMP:  16; 6HR MAX TEMP:  18; 6HR PCP: TRACE;

STEVENS POINT  FLURRIES  17  10  73 W8G22     30.01S WCI   6
6HR MIN TEMP:  17; 6HR MAX TEMP:  19;

WAUPACA        FLURRIES  22  13  68 W12G22    30.03S WCI  11
6HR MIN TEMP:  22; 6HR MAX TEMP:  24;

WAUTOMA        FLURRIES  20  13  74 W17G24    30.05S WCI   5
6HR MIN TEMP:  20; 6HR MAX TEMP:  21; 6HR PCP: TRACE;

WISC RAPIDS    CLOUDY    19  11  70 W14G21    30.04S WCI   6
6HR MIN TEMP:  19; 6HR MAX TEMP:  20; 6HR PCP: TRACE;

CAMP DOUGLAS   FLURRIES  19  11  73 W16       30.07S WCI   4
6HR MIN TEMP:  19; 6HR MAX TEMP:  20; 6HR PCP: TRACE;

$$

WIZ011>013-019>022-031-037>040-048>050-080700-
NORTHEAST WISCONSIN

CITY           SKY/WX    TMP DP  RH WIND       PRES   REMARKS
ANTIGO         FLURRIES  15  10  81 W17       29.93S WCI  -1
6HR MIN TEMP:  15; 6HR MAX TEMP:  17;

SHAWANO        CLOUDY    22  13  67 W14G21    29.99S WCI  10
6HR MIN TEMP:  22; 6HR MAX TEMP:  24;

OCONTO         CLOUDY    22  12  66 W16       29.98S WCI   8
6HR MIN TEMP:  22; 6HR MAX TEMP:  23;

STURGEON BAY   CLOUDY    22  13  68 W17       29.95F WCI   8
6HR MIN TEMP:  22; 6HR MAX TEMP:  25; 6HR PCP: TRACE;

GREEN BAY      CLOUDY    23  14  68 W21       30.00S WCI   8
6HR MIN TEMP:  23; 6HR MAX TEMP:  26; 6HR PCP: TRACE;

MANITOWOC      MOCLDY    22  14  71 W12G23    30.02R WCI  10
6HR MIN TEMP:  22; 6HR MAX TEMP:  24; 6HR PCP: TRACE;

APPLETON       CLOUDY    21  12  68 W17G24    29.99F WCI   7
CLINTONVILLE   CLOUDY    21  12  68 W13G21    30.00S WCI   9
OSHKOSH        CLOUDY    21  12  68 W9G18     30.03S WCI  11
6HR MIN TEMP:  21; 6HR MAX TEMP:  22;

$$

WIZ032>034-041-042-053>061-080700-
SOUTHWEST WISCONSIN

CITY           SKY/WX    TMP DP  RH WIND       PRES   REMARKS
LA CROSSE      CLOUDY    19   8  62 W17       30.16R WCI   4
6HR MIN TEMP:  19; 6HR MAX TEMP:  23; 6HR PCP: TRACE;

SPARTA         FLURRIES  19  13  79 W9G22     30.11S WCI   7
6HR MIN TEMP:  19; 6HR MAX TEMP:  20;

VIROQUA        CLOUDY    17  11  77 W15G21    30.10S WCI   2
6HR MIN TEMP:  17; 6HR MAX TEMP:  19;

BOSCOBEL       LGT SNOW  20  10  65 W10G22    30.18S WCI   9
6HR MIN TEMP:  20; 6HR MAX TEMP:  24; 6HR PCP: TRACE;

PRAIRIE DU CHI CLOUDY    18   8  63 W18       30.21R WCI   3
6HR MIN TEMP:  18; 6HR MAX TEMP:  24;

PLATTEVILLE    CLOUDY    21  15  79 W18G29    30.15S WCI   6
6HR MIN TEMP:  21; 6HR MAX TEMP:  23;

$$

WIZ056-057-062-063-064-067-068-080700-
SOUTH CENTRAL WISCONSIN

CITY           SKY/WX    TMP DP  RH WIND       PRES   REMARKS
REEDSBURG      CLOUDY    19  10  69 W17G24    30.10R WCI   4
6HR MIN TEMP:  19; 6HR MAX TEMP:  20;

BARABOO/DELLS  CLOUDY    19  10  68 W13G24    30.08S WCI   6
6HR MIN TEMP:  19; 6HR MAX TEMP:  20;

LONE ROCK      CLOUDY    21  10  62 W15G24    30.14S WCI   8
6HR MIN TEMP:  21; 6HR MAX TEMP:  22; 6HR PCP: TRACE;

MINERAL POINT  CLOUDY    21  14  73 W17G25    30.11S WCI   7
MADISON        CLOUDY    20  11  68 W12G23    30.10R WCI   8
6HR MIN TEMP:  20; 6HR MAX TEMP:  21; 6HR PCP: TRACE;

MIDDLETON      CLOUDY    22  15  75 W15       30.10S WCI   9
6HR MIN TEMP:  21; 6HR MAX TEMP:  23;

WATERTOWN      FLURRIES  21  14  73 W16G22    30.09S WCI   7
6HR MIN TEMP:  20; 6HR MAX TEMP:  21;

MONROE         CLOUDY    21  14  73 W22G29    30.11S WCI   5
JANESVILLE     CLOUDY    25  16  68 W18G24    30.12R WCI  11
$$

WIZ051-052-058>065-066-070>072-080700-
SOUTHEAST WISCONSIN

CITY           SKY/WX    TMP DP  RH WIND       PRES   REMARKS
MILWAUKEE      FLURRIES  24  12  60 W13G24    30.09S WCI  12
6HR MIN TEMP:  22; 6HR MAX TEMP:  24; 6HR PCP: TRACE;

WAUKESHA       CLOUDY    21  12  68 W16       30.08S WCI   7
MILWAUKEE/TIMM FLURRIES  21  12  68 W12G20    30.09S WCI   9
RACINE         CLOUDY    23  12  62 W15G26    30.11R WCI  10
6HR MIN TEMP:  22; 6HR MAX TEMP:  23;

BURLINGTON     FLURRIES  22  15  74 W10G18    30.10R WCI  12
6HR MIN TEMP:  21; 6HR MAX TEMP:  23;

KENOSHA        CLOUDY    23  14  68 W18G26    30.10R WCI   9
6HR MIN TEMP:  22; 6HR MAX TEMP:  23;

FOND DU LAC    CLOUDY    21  10  62 W14G20    30.05S WCI   8
6HR MIN TEMP:  21; 6HR MAX TEMP:  22; 6HR PCP: TRACE;

SHEBOYGAN      CLOUDY    21  12  68 W17G23    30.04S WCI   7
6HR MIN TEMP:  21; 6HR MAX TEMP:  22; 6HR PCP: TRACE;

WEST BEND      FLURRIES  21  14  73 W13G24    30.05S WCI   9
JUNEAU         FLURRIES  20  12  72 W13G20    30.08S WCI   7
6HR MIN TEMP:  19; 6HR MAX TEMP:  20;

$$

LSZ147-162-080700-
LAKE SUPERIOR

STATION/POSITION TIME  TEMP    WIND        PRES    WAVE
                       AIR SEA DIR/SP/G            HT/PER
                 (UTC) (F)     (DEG/KT/KT) (MB)    (FT/S)
DEVILS ISLAND    0400   26     290/ 20/ 23 1012.6R
PORT WING        0430   25     270/ 19/ 25 1013.9S
SAXON HARBOR     0440   18     220/ 10/ 14 1013.5R
$$

LMZ867-665-643>646-080700-
LAKE MICHIGAN

STATION/POSITION TIME  TEMP    WIND        PRES    WAVE
               C1F1C2F2C3F3C4F4C5F5C6F6C7F7C8M1C9M2Ca!



USA.gov is the U.S. government's official web portal to all federal, state and local government web resources and services.